#datetime,building,power
2023-08-29T00:00:00,rvs,15.77
2023-08-29T00:01:00,rvs,16.26
2023-08-29T00:02:00,rvs,11.52
2023-08-29T00:03:00,rvs,11.10
2023-08-29T00:04:00,rvs,11.17
2023-08-29T00:05:00,rvs,11.05
2023-08-29T00:06:00,rvs,13.20
2023-08-29T00:07:00,rvs,13.01
2023-08-29T00:08:00,rvs,13.04
2023-08-29T00:09:00,rvs,13.64
2023-08-29T00:10:00,rvs,14.11
2023-08-29T00:11:00,rvs,14.78
2023-08-29T00:12:00,rvs,14.79
2023-08-29T00:13:00,rvs,15.16
2023-08-29T00:14:00,rvs,14.81
2023-08-29T00:15:00,rvs,15.02
2023-08-29T00:16:00,rvs,15.17
2023-08-29T00:17:00,rvs,14.91
2023-08-29T00:18:00,rvs,14.67
2023-08-29T00:19:00,rvs,14.54
2023-08-29T00:20:00,rvs,13.43
2023-08-29T00:21:00,rvs,11.16
2023-08-29T00:22:00,rvs,11.26
2023-08-29T00:23:00,rvs,11.35
2023-08-29T00:24:00,rvs,11.28
2023-08-29T00:25:00,rvs,11.13
2023-08-29T00:26:00,rvs,11.60
2023-08-29T00:27:00,rvs,11.63
2023-08-29T00:28:00,rvs,11.61
2023-08-29T00:29:00,rvs,11.54
2023-08-29T00:30:00,rvs,11.51
2023-08-29T00:31:00,rvs,11.57
2023-08-29T00:32:00,rvs,11.53
2023-08-29T00:33:00,rvs,11.54
2023-08-29T00:34:00,rvs,11.53
2023-08-29T00:35:00,rvs,11.50
2023-08-29T00:36:00,rvs,11.46
2023-08-29T00:37:00,rvs,11.48
2023-08-29T00:38:00,rvs,11.68
2023-08-29T00:39:00,rvs,11.72
2023-08-29T00:40:00,rvs,12.43
2023-08-29T00:41:00,rvs,12.27
2023-08-29T00:42:00,rvs,12.34
2023-08-29T00:43:00,rvs,12.09
2023-08-29T00:44:00,rvs,12.14
2023-08-29T00:45:00,rvs,12.53
2023-08-29T00:46:00,rvs,12.60
2023-08-29T00:47:00,rvs,11.57
2023-08-29T00:48:00,rvs,11.57
2023-08-29T00:49:00,rvs,13.61
2023-08-29T00:50:00,rvs,13.93
2023-08-29T00:51:00,rvs,14.39
2023-08-29T00:52:00,rvs,15.00
2023-08-29T00:53:00,rvs,15.82
2023-08-29T00:54:00,rvs,15.74
2023-08-29T00:55:00,rvs,15.50
2023-08-29T00:56:00,rvs,15.95
2023-08-29T00:57:00,rvs,11.51
2023-08-29T00:58:00,rvs,11.80
2023-08-29T00:59:00,rvs,11.49
2023-08-29T01:00:00,rvs,11.36
2023-08-29T01:01:00,rvs,11.21
2023-08-29T01:02:00,rvs,10.68
2023-08-29T01:03:00,rvs,10.71
2023-08-29T01:04:00,rvs,10.67
2023-08-29T01:05:00,rvs,10.86
2023-08-29T01:06:00,rvs,10.62
2023-08-29T01:07:00,rvs,10.64
2023-08-29T01:08:00,rvs,10.65
2023-08-29T01:09:00,rvs,10.72
2023-08-29T01:10:00,rvs,10.72
2023-08-29T01:11:00,rvs,13.14
2023-08-29T01:12:00,rvs,13.23
2023-08-29T01:13:00,rvs,13.36
2023-08-29T01:14:00,rvs,13.79
2023-08-29T01:15:00,rvs,14.69
2023-08-29T01:16:00,rvs,15.55
2023-08-29T01:17:00,rvs,15.20
2023-08-29T01:18:00,rvs,15.75
2023-08-29T01:19:00,rvs,15.72
2023-08-29T01:20:00,rvs,15.96
2023-08-29T01:21:00,rvs,16.19
2023-08-29T01:22:00,rvs,16.37
2023-08-29T01:23:00,rvs,13.24
2023-08-29T01:24:00,rvs,27.14
2023-08-29T01:25:00,rvs,27.18
2023-08-29T01:26:00,rvs,25.71
2023-08-29T01:27:00,rvs,26.40
2023-08-29T01:28:00,rvs,11.52
2023-08-29T01:29:00,rvs,11.53
2023-08-29T01:30:00,rvs,11.41
2023-08-29T01:31:00,rvs,11.48
2023-08-29T01:32:00,rvs,11.33
2023-08-29T01:33:00,rvs,12.12
2023-08-29T01:34:00,rvs,11.51
2023-08-29T01:35:00,rvs,11.50
2023-08-29T01:36:00,rvs,11.44
2023-08-29T01:37:00,rvs,11.41
2023-08-29T01:38:00,rvs,10.90
2023-08-29T01:39:00,rvs,11.03
2023-08-29T01:40:00,rvs,10.96
2023-08-29T01:41:00,rvs,10.87
2023-08-29T01:42:00,rvs,10.85
2023-08-29T01:43:00,rvs,10.84
2023-08-29T01:44:00,rvs,10.85
2023-08-29T01:45:00,rvs,10.88
2023-08-29T01:46:00,rvs,10.84
2023-08-29T01:47:00,rvs,10.77
2023-08-29T01:48:00,rvs,10.70
2023-08-29T01:49:00,rvs,10.79
2023-08-29T01:50:00,rvs,10.76
2023-08-29T01:51:00,rvs,11.08
2023-08-29T01:52:00,rvs,11.42
2023-08-29T01:53:00,rvs,11.38
2023-08-29T01:54:00,rvs,10.70
2023-08-29T01:55:00,rvs,10.68
2023-08-29T01:56:00,rvs,11.15
2023-08-29T01:57:00,rvs,11.26
2023-08-29T01:58:00,rvs,11.19
2023-08-29T01:59:00,rvs,11.10
2023-08-29T02:00:00,rvs,11.12
2023-08-29T02:01:00,rvs,11.12
2023-08-29T02:02:00,rvs,11.15
2023-08-29T02:03:00,rvs,11.18
2023-08-29T02:04:00,rvs,13.20
2023-08-29T02:05:00,rvs,13.77
2023-08-29T02:06:00,rvs,13.91
2023-08-29T02:07:00,rvs,14.41
2023-08-29T02:08:00,rvs,15.14
2023-08-29T02:09:00,rvs,15.94
2023-08-29T02:10:00,rvs,15.49
2023-08-29T02:11:00,rvs,15.88
2023-08-29T02:12:00,rvs,15.84
2023-08-29T02:13:00,rvs,16.32
2023-08-29T02:14:00,rvs,16.01
2023-08-29T02:15:00,rvs,15.78
2023-08-29T02:16:00,rvs,15.22
2023-08-29T02:17:00,rvs,15.43
2023-08-29T02:18:00,rvs,11.40
2023-08-29T02:19:00,rvs,11.34
2023-08-29T02:20:00,rvs,11.28
2023-08-29T02:21:00,rvs,11.34
2023-08-29T02:22:00,rvs,11.40
2023-08-29T02:23:00,rvs,11.87
2023-08-29T02:24:00,rvs,13.89
2023-08-29T02:25:00,rvs,13.81
2023-08-29T02:26:00,rvs,14.27
2023-08-29T02:27:00,rvs,14.79
2023-08-29T02:28:00,rvs,15.57
2023-08-29T02:29:00,rvs,15.55
2023-08-29T02:30:00,rvs,17.14
2023-08-29T02:31:00,rvs,17.26
2023-08-29T02:32:00,rvs,17.63
2023-08-29T02:33:00,rvs,17.49
2023-08-29T02:34:00,rvs,17.85
2023-08-29T02:35:00,rvs,18.60
2023-08-29T02:36:00,rvs,19.31
2023-08-29T02:37:00,rvs,18.97
2023-08-29T02:38:00,rvs,18.87
2023-08-29T02:39:00,rvs,18.79
2023-08-29T02:40:00,rvs,20.64
2023-08-29T02:41:00,rvs,21.20
2023-08-29T02:42:00,rvs,17.25
2023-08-29T02:43:00,rvs,12.77
2023-08-29T02:44:00,rvs,13.46
2023-08-29T02:45:00,rvs,11.10
2023-08-29T02:46:00,rvs,11.69
2023-08-29T02:47:00,rvs,10.93
2023-08-29T02:48:00,rvs,10.85
2023-08-29T02:49:00,rvs,10.92
2023-08-29T02:50:00,rvs,10.84
2023-08-29T02:51:00,rvs,10.83
2023-08-29T02:52:00,rvs,10.82
2023-08-29T02:53:00,rvs,10.84
2023-08-29T02:54:00,rvs,10.82
2023-08-29T02:55:00,rvs,10.85
2023-08-29T02:56:00,rvs,11.32
2023-08-29T02:57:00,rvs,11.35
2023-08-29T02:58:00,rvs,11.36
2023-08-29T02:59:00,rvs,10.72
2023-08-29T03:00:00,rvs,11.24
2023-08-29T03:01:00,rvs,11.36
2023-08-29T03:02:00,rvs,11.30
2023-08-29T03:03:00,rvs,11.34
2023-08-29T03:04:00,rvs,11.23
2023-08-29T03:05:00,rvs,13.57
2023-08-29T03:06:00,rvs,13.68
2023-08-29T03:07:00,rvs,13.72
2023-08-29T03:08:00,rvs,13.93
2023-08-29T03:09:00,rvs,14.60
2023-08-29T03:10:00,rvs,15.30
2023-08-29T03:11:00,rvs,16.03
2023-08-29T03:12:00,rvs,15.83
2023-08-29T03:13:00,rvs,16.45
2023-08-29T03:14:00,rvs,16.74
2023-08-29T03:15:00,rvs,16.78
2023-08-29T03:16:00,rvs,17.10
2023-08-29T03:17:00,rvs,11.78
2023-08-29T03:18:00,rvs,11.71
2023-08-29T03:19:00,rvs,11.23
2023-08-29T03:20:00,rvs,10.77
2023-08-29T03:21:00,rvs,10.82
2023-08-29T03:22:00,rvs,10.76
2023-08-29T03:23:00,rvs,10.71
2023-08-29T03:24:00,rvs,10.76
2023-08-29T03:25:00,rvs,10.75
2023-08-29T03:26:00,rvs,10.72
2023-08-29T03:27:00,rvs,10.74
2023-08-29T03:28:00,rvs,10.70
2023-08-29T03:29:00,rvs,10.79
2023-08-29T03:30:00,rvs,10.88
2023-08-29T03:31:00,rvs,11.26
2023-08-29T03:32:00,rvs,11.22
2023-08-29T03:33:00,rvs,10.63
2023-08-29T03:34:00,rvs,10.63
2023-08-29T03:35:00,rvs,10.66
2023-08-29T03:36:00,rvs,10.77
2023-08-29T03:37:00,rvs,10.78
2023-08-29T03:38:00,rvs,10.78
2023-08-29T03:39:00,rvs,10.81
2023-08-29T03:40:00,rvs,10.74
2023-08-29T03:41:00,rvs,10.65
2023-08-29T03:42:00,rvs,10.74
2023-08-29T03:43:00,rvs,10.86
2023-08-29T03:44:00,rvs,10.84
2023-08-29T03:45:00,rvs,10.88
2023-08-29T03:46:00,rvs,10.88
2023-08-29T03:47:00,rvs,10.81
2023-08-29T03:48:00,rvs,10.84
2023-08-29T03:49:00,rvs,10.89
2023-08-29T03:50:00,rvs,10.89
2023-08-29T03:51:00,rvs,11.32
2023-08-29T03:52:00,rvs,11.29
2023-08-29T03:53:00,rvs,11.28
2023-08-29T03:54:00,rvs,11.43
2023-08-29T03:55:00,rvs,11.41
2023-08-29T03:56:00,rvs,11.24
2023-08-29T03:57:00,rvs,11.19
2023-08-29T03:58:00,rvs,11.31
2023-08-29T03:59:00,rvs,11.27
2023-08-29T04:00:00,rvs,11.33
2023-08-29T04:01:00,rvs,11.21
2023-08-29T04:02:00,rvs,11.24
2023-08-29T04:03:00,rvs,11.21
2023-08-29T04:04:00,rvs,11.22
2023-08-29T04:05:00,rvs,11.21
2023-08-29T04:06:00,rvs,11.37
2023-08-29T04:07:00,rvs,11.46
2023-08-29T04:08:00,rvs,11.81
2023-08-29T04:09:00,rvs,11.76
2023-08-29T04:10:00,rvs,24.64
2023-08-29T04:11:00,rvs,23.80
2023-08-29T04:12:00,rvs,23.63
2023-08-29T04:13:00,rvs,23.40
2023-08-29T04:14:00,rvs,10.78
2023-08-29T04:15:00,rvs,10.73
2023-08-29T04:16:00,rvs,11.33
2023-08-29T04:17:00,rvs,11.36
2023-08-29T04:18:00,rvs,11.43
2023-08-29T04:19:00,rvs,11.41
2023-08-29T04:20:00,rvs,11.39
2023-08-29T04:21:00,rvs,11.30
2023-08-29T04:22:00,rvs,11.25
2023-08-29T04:23:00,rvs,11.24
2023-08-29T04:24:00,rvs,11.22
2023-08-29T04:25:00,rvs,11.42
2023-08-29T04:26:00,rvs,11.84
2023-08-29T04:27:00,rvs,11.74
2023-08-29T04:28:00,rvs,11.89
2023-08-29T04:29:00,rvs,11.39
2023-08-29T04:30:00,rvs,11.35
2023-08-29T04:31:00,rvs,10.80
2023-08-29T04:32:00,rvs,10.79
2023-08-29T04:33:00,rvs,10.72
2023-08-29T04:34:00,rvs,12.92
2023-08-29T04:35:00,rvs,13.19
2023-08-29T04:36:00,rvs,13.42
2023-08-29T04:37:00,rvs,12.66
2023-08-29T04:38:00,rvs,13.80
2023-08-29T04:39:00,rvs,11.44
2023-08-29T04:40:00,rvs,12.14
2023-08-29T04:41:00,rvs,11.09
2023-08-29T04:42:00,rvs,11.09
2023-08-29T04:43:00,rvs,11.68
2023-08-29T04:44:00,rvs,11.64
2023-08-29T04:45:00,rvs,11.58
2023-08-29T04:46:00,rvs,11.59
2023-08-29T04:47:00,rvs,11.51
2023-08-29T04:48:00,rvs,11.66
2023-08-29T04:49:00,rvs,11.38
2023-08-29T04:50:00,rvs,11.50
2023-08-29T04:51:00,rvs,11.48
2023-08-29T04:52:00,rvs,11.52
2023-08-29T04:53:00,rvs,11.53
2023-08-29T04:54:00,rvs,11.61
2023-08-29T04:55:00,rvs,11.67
2023-08-29T04:56:00,rvs,11.69
2023-08-29T04:57:00,rvs,11.63
2023-08-29T04:58:00,rvs,11.63
2023-08-29T04:59:00,rvs,13.73
2023-08-29T05:00:00,rvs,13.92
2023-08-29T05:01:00,rvs,14.03
2023-08-29T05:02:00,rvs,13.55
2023-08-29T05:03:00,rvs,13.51
2023-08-29T05:04:00,rvs,13.79
2023-08-29T05:05:00,rvs,14.14
2023-08-29T05:06:00,rvs,14.41
2023-08-29T05:07:00,rvs,15.37
2023-08-29T05:08:00,rvs,16.29
2023-08-29T05:09:00,rvs,14.70
2023-08-29T05:10:00,rvs,14.49
2023-08-29T05:11:00,rvs,14.05
2023-08-29T05:12:00,rvs,14.09
2023-08-29T05:13:00,rvs,13.43
2023-08-29T05:14:00,rvs,11.17
2023-08-29T05:15:00,rvs,11.03
2023-08-29T05:16:00,rvs,10.82
2023-08-29T05:17:00,rvs,10.99
2023-08-29T05:18:00,rvs,11.13
2023-08-29T05:19:00,rvs,11.05
2023-08-29T05:20:00,rvs,11.17
2023-08-29T05:21:00,rvs,11.30
2023-08-29T05:22:00,rvs,11.39
2023-08-29T05:23:00,rvs,11.34
2023-08-29T05:24:00,rvs,11.34
2023-08-29T05:25:00,rvs,11.33
2023-08-29T05:26:00,rvs,11.25
2023-08-29T05:27:00,rvs,11.28
2023-08-29T05:28:00,rvs,11.36
2023-08-29T05:29:00,rvs,11.30
2023-08-29T05:30:00,rvs,11.37
2023-08-29T05:31:00,rvs,11.39
2023-08-29T05:32:00,rvs,11.30
2023-08-29T05:33:00,rvs,11.65
2023-08-29T05:34:00,rvs,11.52
2023-08-29T05:35:00,rvs,11.47
2023-08-29T05:36:00,rvs,11.41
2023-08-29T05:37:00,rvs,11.52
2023-08-29T05:38:00,rvs,11.63
2023-08-29T05:39:00,rvs,12.10
2023-08-29T05:40:00,rvs,11.87
2023-08-29T05:41:00,rvs,12.10
2023-08-29T05:42:00,rvs,12.58
2023-08-29T05:43:00,rvs,12.49
2023-08-29T05:44:00,rvs,11.91
2023-08-29T05:45:00,rvs,11.90
2023-08-29T05:46:00,rvs,11.96
2023-08-29T05:47:00,rvs,11.89
2023-08-29T05:48:00,rvs,11.47
2023-08-29T05:49:00,rvs,11.63
2023-08-29T05:50:00,rvs,11.60
2023-08-29T05:51:00,rvs,11.63
2023-08-29T05:52:00,rvs,11.72
2023-08-29T05:53:00,rvs,11.63
2023-08-29T05:54:00,rvs,11.63
2023-08-29T05:55:00,rvs,11.65
2023-08-29T05:56:00,rvs,11.69
2023-08-29T05:57:00,rvs,11.84
2023-08-29T05:58:00,rvs,11.83
2023-08-29T05:59:00,rvs,11.80
2023-08-29T06:00:00,rvs,11.72
2023-08-29T06:01:00,rvs,11.65
2023-08-29T06:02:00,rvs,11.64
2023-08-29T06:03:00,rvs,12.07
2023-08-29T06:04:00,rvs,11.87
2023-08-29T06:05:00,rvs,12.03
2023-08-29T06:06:00,rvs,11.79
2023-08-29T06:07:00,rvs,11.97
2023-08-29T06:08:00,rvs,11.95
2023-08-29T06:09:00,rvs,13.72
2023-08-29T06:10:00,rvs,13.85
2023-08-29T06:11:00,rvs,13.28
2023-08-29T06:12:00,rvs,12.67
2023-08-29T06:13:00,rvs,12.69
2023-08-29T06:14:00,rvs,13.16
2023-08-29T06:15:00,rvs,14.63
2023-08-29T06:16:00,rvs,16.19
2023-08-29T06:17:00,rvs,16.52
2023-08-29T06:18:00,rvs,15.94
2023-08-29T06:19:00,rvs,16.54
2023-08-29T06:20:00,rvs,15.73
2023-08-29T06:21:00,rvs,15.76
2023-08-29T06:22:00,rvs,15.34
2023-08-29T06:23:00,rvs,17.14
2023-08-29T06:24:00,rvs,17.16
2023-08-29T06:25:00,rvs,17.10
2023-08-29T06:26:00,rvs,17.28
2023-08-29T06:27:00,rvs,16.96
2023-08-29T06:28:00,rvs,13.01
2023-08-29T06:29:00,rvs,12.54
2023-08-29T06:30:00,rvs,12.73
2023-08-29T06:31:00,rvs,15.26
2023-08-29T06:32:00,rvs,15.78
2023-08-29T06:33:00,rvs,16.05
2023-08-29T06:34:00,rvs,16.33
2023-08-29T06:35:00,rvs,20.99
2023-08-29T06:36:00,rvs,19.81
2023-08-29T06:37:00,rvs,18.86
2023-08-29T06:38:00,rvs,17.86
2023-08-29T06:39:00,rvs,15.62
2023-08-29T06:40:00,rvs,18.01
2023-08-29T06:41:00,rvs,17.81
2023-08-29T06:42:00,rvs,20.39
2023-08-29T06:43:00,rvs,20.38
2023-08-29T06:44:00,rvs,20.79
2023-08-29T06:45:00,rvs,21.44
2023-08-29T06:46:00,rvs,18.41
2023-08-29T06:47:00,rvs,18.79
2023-08-29T06:48:00,rvs,18.66
2023-08-29T06:49:00,rvs,18.89
2023-08-29T06:50:00,rvs,18.76
2023-08-29T06:51:00,rvs,19.15
2023-08-29T06:52:00,rvs,19.51
2023-08-29T06:53:00,rvs,15.57
2023-08-29T06:54:00,rvs,15.28
2023-08-29T06:55:00,rvs,15.94
2023-08-29T06:56:00,rvs,16.58
2023-08-29T06:57:00,rvs,13.06
2023-08-29T06:58:00,rvs,13.25
2023-08-29T06:59:00,rvs,13.06
2023-08-29T07:00:00,rvs,12.67
2023-08-29T07:01:00,rvs,12.88
2023-08-29T07:02:00,rvs,12.69
2023-08-29T07:03:00,rvs,12.74
2023-08-29T07:04:00,rvs,12.94
2023-08-29T07:05:00,rvs,12.50
2023-08-29T07:06:00,rvs,12.50
2023-08-29T07:07:00,rvs,12.22
2023-08-29T07:08:00,rvs,12.34
2023-08-29T07:09:00,rvs,12.27
2023-08-29T07:10:00,rvs,12.32
2023-08-29T07:11:00,rvs,12.24
2023-08-29T07:12:00,rvs,11.83
2023-08-29T07:13:00,rvs,11.76
2023-08-29T07:14:00,rvs,11.70
2023-08-29T07:15:00,rvs,12.79
2023-08-29T07:16:00,rvs,11.36
2023-08-29T07:17:00,rvs,12.03
2023-08-29T07:18:00,rvs,11.97
2023-08-29T07:19:00,rvs,11.41
2023-08-29T07:20:00,rvs,11.61
2023-08-29T07:21:00,rvs,12.15
2023-08-29T07:22:00,rvs,12.10
2023-08-29T07:23:00,rvs,12.38
2023-08-29T07:24:00,rvs,11.39
2023-08-29T07:25:00,rvs,24.55
2023-08-29T07:26:00,rvs,24.28
2023-08-29T07:27:00,rvs,23.94
2023-08-29T07:28:00,rvs,23.84
2023-08-29T07:29:00,rvs,11.35
2023-08-29T07:30:00,rvs,12.17
2023-08-29T07:31:00,rvs,12.51
2023-08-29T07:32:00,rvs,12.06
2023-08-29T07:33:00,rvs,10.98
2023-08-29T07:34:00,rvs,11.32
2023-08-29T07:35:00,rvs,10.99
2023-08-29T07:36:00,rvs,10.99
2023-08-29T07:37:00,rvs,11.39
2023-08-29T07:38:00,rvs,11.03
2023-08-29T07:39:00,rvs,10.94
2023-08-29T07:40:00,rvs,11.00
2023-08-29T07:41:00,rvs,11.02
2023-08-29T07:42:00,rvs,11.04
2023-08-29T07:43:00,rvs,11.09
2023-08-29T07:44:00,rvs,11.52
2023-08-29T07:45:00,rvs,11.49
2023-08-29T07:46:00,rvs,11.40
2023-08-29T07:47:00,rvs,12.00
2023-08-29T07:48:00,rvs,11.59
2023-08-29T07:49:00,rvs,11.77
2023-08-29T07:50:00,rvs,11.97
2023-08-29T07:51:00,rvs,11.83
2023-08-29T07:52:00,rvs,11.76
2023-08-29T07:53:00,rvs,12.34
2023-08-29T07:54:00,rvs,12.36
2023-08-29T07:55:00,rvs,13.16
2023-08-29T07:56:00,rvs,14.73
2023-08-29T07:57:00,rvs,15.32
2023-08-29T07:58:00,rvs,16.09
2023-08-29T07:59:00,rvs,17.83
2023-08-29T08:00:00,rvs,19.11
2023-08-29T08:01:00,rvs,18.80
2023-08-29T08:02:00,rvs,18.12
2023-08-29T08:03:00,rvs,18.92
2023-08-29T08:04:00,rvs,16.86
2023-08-29T08:05:00,rvs,16.69
2023-08-29T08:06:00,rvs,16.58
2023-08-29T08:07:00,rvs,16.75
2023-08-29T08:08:00,rvs,18.48
2023-08-29T08:09:00,rvs,18.40
2023-08-29T08:10:00,rvs,18.75
2023-08-29T08:11:00,rvs,17.65
2023-08-29T08:12:00,rvs,13.83
2023-08-29T08:13:00,rvs,14.00
2023-08-29T08:14:00,rvs,14.29
2023-08-29T08:15:00,rvs,14.44
2023-08-29T08:16:00,rvs,13.99
2023-08-29T08:17:00,rvs,16.25
2023-08-29T08:18:00,rvs,16.42
2023-08-29T08:19:00,rvs,16.02
2023-08-29T08:20:00,rvs,15.90
2023-08-29T08:21:00,rvs,16.92
2023-08-29T08:22:00,rvs,18.44
2023-08-29T08:23:00,rvs,18.86
2023-08-29T08:24:00,rvs,18.64
2023-08-29T08:25:00,rvs,18.76
2023-08-29T08:26:00,rvs,19.82
2023-08-29T08:27:00,rvs,20.62
2023-08-29T08:28:00,rvs,20.62
2023-08-29T08:29:00,rvs,21.35
2023-08-29T08:30:00,rvs,21.31
2023-08-29T08:31:00,rvs,21.05
2023-08-29T08:32:00,rvs,22.78
2023-08-29T08:33:00,rvs,21.89
2023-08-29T08:34:00,rvs,22.34
2023-08-29T08:35:00,rvs,20.64
2023-08-29T08:36:00,rvs,19.18
2023-08-29T08:37:00,rvs,18.63
2023-08-29T08:38:00,rvs,19.35
2023-08-29T08:39:00,rvs,20.57
2023-08-29T08:40:00,rvs,15.22
2023-08-29T08:41:00,rvs,15.42
2023-08-29T08:42:00,rvs,12.63
2023-08-29T08:43:00,rvs,12.66
2023-08-29T08:44:00,rvs,12.53
2023-08-29T08:45:00,rvs,12.58
2023-08-29T08:46:00,rvs,12.44
2023-08-29T08:47:00,rvs,15.32
2023-08-29T08:48:00,rvs,14.95
2023-08-29T08:49:00,rvs,15.04
2023-08-29T08:50:00,rvs,15.33
2023-08-29T08:51:00,rvs,16.22
2023-08-29T08:52:00,rvs,16.28
2023-08-29T08:53:00,rvs,16.60
2023-08-29T08:54:00,rvs,33.47
2023-08-29T08:55:00,rvs,16.65
2023-08-29T08:56:00,rvs,16.62
2023-08-29T08:57:00,rvs,16.42
2023-08-29T08:58:00,rvs,17.16
2023-08-29T08:59:00,rvs,15.85
2023-08-29T09:00:00,rvs,19.80
2023-08-29T09:01:00,rvs,20.60
2023-08-29T09:02:00,rvs,21.42
2023-08-29T09:03:00,rvs,22.73
2023-08-29T09:04:00,rvs,23.83
2023-08-29T09:05:00,rvs,22.97
2023-08-29T09:06:00,rvs,23.06
2023-08-29T09:07:00,rvs,22.86
2023-08-29T09:08:00,rvs,23.35
2023-08-29T09:09:00,rvs,21.04
2023-08-29T09:10:00,rvs,20.93
2023-08-29T09:11:00,rvs,20.73
2023-08-29T09:12:00,rvs,38.76
2023-08-29T09:13:00,rvs,16.68
2023-08-29T09:14:00,rvs,17.04
2023-08-29T09:15:00,rvs,16.40
2023-08-29T09:16:00,rvs,16.76
2023-08-29T09:17:00,rvs,16.92
2023-08-29T09:18:00,rvs,17.16
2023-08-29T09:19:00,rvs,34.98
2023-08-29T09:20:00,rvs,17.33
2023-08-29T09:21:00,rvs,17.30
2023-08-29T09:22:00,rvs,17.08
2023-08-29T09:23:00,rvs,21.03
2023-08-29T09:24:00,rvs,20.93
2023-08-29T09:25:00,rvs,16.38
2023-08-29T09:26:00,rvs,16.85
2023-08-29T09:27:00,rvs,17.24
2023-08-29T09:28:00,rvs,17.24
2023-08-29T09:29:00,rvs,17.36
2023-08-29T09:30:00,rvs,17.38
2023-08-29T09:31:00,rvs,17.22
2023-08-29T09:32:00,rvs,16.91
2023-08-29T09:33:00,rvs,16.56
2023-08-29T09:34:00,rvs,16.44
2023-08-29T09:35:00,rvs,16.44
2023-08-29T09:36:00,rvs,16.42
2023-08-29T09:37:00,rvs,16.44
2023-08-29T09:38:00,rvs,16.44
2023-08-29T09:39:00,rvs,16.46
2023-08-29T09:40:00,rvs,16.72
2023-08-29T09:41:00,rvs,20.17
2023-08-29T09:42:00,rvs,20.11
2023-08-29T09:43:00,rvs,20.37
2023-08-29T09:44:00,rvs,21.33
2023-08-29T09:45:00,rvs,23.07
2023-08-29T09:46:00,rvs,23.36
2023-08-29T09:47:00,rvs,19.36
2023-08-29T09:48:00,rvs,19.21
2023-08-29T09:49:00,rvs,20.16
2023-08-29T09:50:00,rvs,20.48
2023-08-29T09:51:00,rvs,19.71
2023-08-29T09:52:00,rvs,19.19
2023-08-29T09:53:00,rvs,37.80
2023-08-29T09:54:00,rvs,18.34
2023-08-29T09:55:00,rvs,18.57
2023-08-29T09:56:00,rvs,18.86
2023-08-29T09:57:00,rvs,18.50
2023-08-29T09:58:00,rvs,17.93
2023-08-29T09:59:00,rvs,18.46
2023-08-29T10:00:00,rvs,19.20
2023-08-29T10:01:00,rvs,20.23
2023-08-29T10:02:00,rvs,20.81
2023-08-29T10:03:00,rvs,16.61
2023-08-29T10:04:00,rvs,16.61
2023-08-29T10:05:00,rvs,19.79
2023-08-29T10:06:00,rvs,20.25
2023-08-29T10:07:00,rvs,19.02
2023-08-29T10:08:00,rvs,19.59
2023-08-29T10:09:00,rvs,16.22
2023-08-29T10:10:00,rvs,16.88
2023-08-29T10:11:00,rvs,17.18
2023-08-29T10:12:00,rvs,16.29
2023-08-29T10:13:00,rvs,16.15
2023-08-29T10:14:00,rvs,16.47
2023-08-29T10:15:00,rvs,16.28
2023-08-29T10:16:00,rvs,20.47
2023-08-29T10:17:00,rvs,16.63
2023-08-29T10:18:00,rvs,16.75
2023-08-29T10:19:00,rvs,16.05
2023-08-29T10:20:00,rvs,15.80
2023-08-29T10:21:00,rvs,20.20
2023-08-29T10:22:00,rvs,16.48
2023-08-29T10:23:00,rvs,16.19
2023-08-29T10:24:00,rvs,16.12
2023-08-29T10:25:00,rvs,17.07
2023-08-29T10:26:00,rvs,19.12
2023-08-29T10:27:00,rvs,19.43
2023-08-29T10:28:00,rvs,19.69
2023-08-29T10:29:00,rvs,20.24
2023-08-29T10:30:00,rvs,20.10
2023-08-29T10:31:00,rvs,36.41
2023-08-29T10:32:00,rvs,20.70
2023-08-29T10:33:00,rvs,20.34
2023-08-29T10:34:00,rvs,19.97
2023-08-29T10:35:00,rvs,19.68
2023-08-29T10:36:00,rvs,19.49
2023-08-29T10:37:00,rvs,16.49
2023-08-29T10:38:00,rvs,34.73
2023-08-29T10:39:00,rvs,15.89
2023-08-29T10:40:00,rvs,16.92
2023-08-29T10:41:00,rvs,18.71
2023-08-29T10:42:00,rvs,18.79
2023-08-29T10:43:00,rvs,18.67
2023-08-29T10:44:00,rvs,18.98
2023-08-29T10:45:00,rvs,19.17
2023-08-29T10:46:00,rvs,18.43
2023-08-29T10:47:00,rvs,19.26
2023-08-29T10:48:00,rvs,18.96
2023-08-29T10:49:00,rvs,19.10
2023-08-29T10:50:00,rvs,19.04
2023-08-29T10:51:00,rvs,19.26
2023-08-29T10:52:00,rvs,21.10
2023-08-29T10:53:00,rvs,18.08
2023-08-29T10:54:00,rvs,22.31
2023-08-29T10:55:00,rvs,23.09
2023-08-29T10:56:00,rvs,19.97
2023-08-29T10:57:00,rvs,23.36
2023-08-29T10:58:00,rvs,23.38
2023-08-29T10:59:00,rvs,16.11
2023-08-29T11:00:00,rvs,20.33
2023-08-29T11:01:00,rvs,20.36
2023-08-29T11:02:00,rvs,16.45
2023-08-29T11:03:00,rvs,20.34
2023-08-29T11:04:00,rvs,20.10
2023-08-29T11:05:00,rvs,15.99
2023-08-29T11:06:00,rvs,15.95
2023-08-29T11:07:00,rvs,15.49
2023-08-29T11:08:00,rvs,18.79
2023-08-29T11:09:00,rvs,15.39
2023-08-29T11:10:00,rvs,20.05
2023-08-29T11:11:00,rvs,15.97
2023-08-29T11:12:00,rvs,17.20
2023-08-29T11:13:00,rvs,20.55
2023-08-29T11:14:00,rvs,15.73
2023-08-29T11:15:00,rvs,15.68
2023-08-29T11:16:00,rvs,15.76
2023-08-29T11:17:00,rvs,16.12
2023-08-29T11:18:00,rvs,16.15
2023-08-29T11:19:00,rvs,16.54
2023-08-29T11:20:00,rvs,15.90
2023-08-29T11:21:00,rvs,15.84
2023-08-29T11:22:00,rvs,18.10
2023-08-29T11:23:00,rvs,18.79
2023-08-29T11:24:00,rvs,31.51
2023-08-29T11:25:00,rvs,26.89
2023-08-29T11:26:00,rvs,14.28
2023-08-29T11:27:00,rvs,27.31
2023-08-29T11:28:00,rvs,27.55
2023-08-29T11:29:00,rvs,15.75
2023-08-29T11:30:00,rvs,15.58
2023-08-29T11:31:00,rvs,14.73
2023-08-29T11:32:00,rvs,15.34
2023-08-29T11:33:00,rvs,15.38
2023-08-29T11:34:00,rvs,15.45
2023-08-29T11:35:00,rvs,11.35
2023-08-29T11:36:00,rvs,11.30
2023-08-29T11:37:00,rvs,11.34
2023-08-29T11:38:00,rvs,11.40
2023-08-29T11:39:00,rvs,14.05
2023-08-29T11:40:00,rvs,14.51
2023-08-29T11:41:00,rvs,15.47
2023-08-29T11:42:00,rvs,15.33
2023-08-29T11:43:00,rvs,15.80
2023-08-29T11:44:00,rvs,14.66
2023-08-29T11:45:00,rvs,14.25
2023-08-29T11:46:00,rvs,15.06
2023-08-29T11:47:00,rvs,15.49
2023-08-29T11:48:00,rvs,15.52
2023-08-29T11:49:00,rvs,15.78
2023-08-29T11:50:00,rvs,15.82
2023-08-29T11:51:00,rvs,16.37
2023-08-29T11:52:00,rvs,16.60
2023-08-29T11:53:00,rvs,16.66
2023-08-29T11:54:00,rvs,16.84
2023-08-29T11:55:00,rvs,16.54
2023-08-29T11:56:00,rvs,16.36
2023-08-29T11:57:00,rvs,16.53
2023-08-29T11:58:00,rvs,17.99
2023-08-29T11:59:00,rvs,18.21
2023-08-29T12:00:00,rvs,21.02
2023-08-29T12:01:00,rvs,22.07
2023-08-29T12:02:00,rvs,19.50
2023-08-29T12:03:00,rvs,19.67
2023-08-29T12:04:00,rvs,20.49
2023-08-29T12:05:00,rvs,23.57
2023-08-29T12:06:00,rvs,25.60
2023-08-29T12:07:00,rvs,26.92
2023-08-29T12:08:00,rvs,24.38
2023-08-29T12:09:00,rvs,26.30
2023-08-29T12:10:00,rvs,21.49
2023-08-29T12:11:00,rvs,20.40
2023-08-29T12:12:00,rvs,20.09
2023-08-29T12:13:00,rvs,20.06
2023-08-29T12:14:00,rvs,20.29
2023-08-29T12:15:00,rvs,20.19
2023-08-29T12:16:00,rvs,19.89
2023-08-29T12:17:00,rvs,21.55
2023-08-29T12:18:00,rvs,21.65
2023-08-29T12:19:00,rvs,25.69
2023-08-29T12:20:00,rvs,25.28
2023-08-29T12:21:00,rvs,24.88
2023-08-29T12:22:00,rvs,24.76
2023-08-29T12:23:00,rvs,23.49
2023-08-29T12:24:00,rvs,24.26
2023-08-29T12:25:00,rvs,24.25
2023-08-29T12:26:00,rvs,22.47
2023-08-29T12:27:00,rvs,23.38
2023-08-29T12:28:00,rvs,23.03
2023-08-29T12:29:00,rvs,26.12
2023-08-29T12:30:00,rvs,24.95
2023-08-29T12:31:00,rvs,25.55
2023-08-29T12:32:00,rvs,26.17
2023-08-29T12:33:00,rvs,26.56
2023-08-29T12:34:00,rvs,26.17
2023-08-29T12:35:00,rvs,24.44
2023-08-29T12:36:00,rvs,22.34
2023-08-29T12:37:00,rvs,18.89
2023-08-29T12:38:00,rvs,19.33
2023-08-29T12:39:00,rvs,19.32
2023-08-29T12:40:00,rvs,20.34
2023-08-29T12:41:00,rvs,19.92
2023-08-29T12:42:00,rvs,20.05
2023-08-29T12:43:00,rvs,22.68
2023-08-29T12:44:00,rvs,22.46
2023-08-29T12:45:00,rvs,22.28
2023-08-29T12:46:00,rvs,23.31
2023-08-29T12:47:00,rvs,22.93
2023-08-29T12:48:00,rvs,22.72
2023-08-29T12:49:00,rvs,22.59
2023-08-29T12:50:00,rvs,22.91
2023-08-29T12:51:00,rvs,23.23
2023-08-29T12:52:00,rvs,23.24
2023-08-29T12:53:00,rvs,22.22
2023-08-29T12:54:00,rvs,18.20
2023-08-29T12:55:00,rvs,18.28
2023-08-29T12:56:00,rvs,18.86
2023-08-29T12:57:00,rvs,18.08
2023-08-29T12:58:00,rvs,18.03
2023-08-29T12:59:00,rvs,14.75
2023-08-29T13:00:00,rvs,15.07
2023-08-29T13:01:00,rvs,15.04
2023-08-29T13:02:00,rvs,18.30
2023-08-29T13:03:00,rvs,18.73
2023-08-29T13:04:00,rvs,18.78
2023-08-29T13:05:00,rvs,20.06
2023-08-29T13:06:00,rvs,19.86
2023-08-29T13:07:00,rvs,19.70
2023-08-29T13:08:00,rvs,11.39
2023-08-29T13:09:00,rvs,11.93
2023-08-29T13:10:00,rvs,11.90
2023-08-29T13:11:00,rvs,11.93
2023-08-29T13:12:00,rvs,11.64
2023-08-29T13:13:00,rvs,11.57
2023-08-29T13:14:00,rvs,11.42
2023-08-29T13:15:00,rvs,17.59
2023-08-29T13:16:00,rvs,21.65
2023-08-29T13:17:00,rvs,21.27
2023-08-29T13:18:00,rvs,22.77